Hastings, NE

10:08 PM CST on December 04, 2016 (GMT -0600)
Hastings Municipal

Weather History for KHSI - October, 2013

Change the Weather History Date:

Wednesday, October 2, 2013

  Actual Average Record
Temperature  
Mean Temperature 73 °F 59 °F  
Max Temperature 84 °F 71 °F 95 °F (2006)
Min Temperature 61 °F 47 °F 29 °F (1974)
Degree Days  
Heating Degree Days 0 7  
Month to date heating degree days 0 14  
Since 1 July heating degree days 35 110  
Cooling Degree Days 8 1  
Month to date cooling degree days 8 2  
Year to date cooling degree days 1151 1065  
Growing Degree Days 22 (Base 50)    
Moisture  
Dew Point 58 °F    
Average Humidity 67    
Maximum Humidity 90    
Minimum Humidity 43    
Precipitation  
Precipitation 0.64 in 0.07 in 0.93 in (1950)
Month to date precipitation 0.64 0.14  
Year to date precipitation 19.96 23.36  
Snow  
Snow 0.00 in 0.00 in - ()
Month to date snowfall 0.0 0.0  
Since 1 July snowfall 0.0 0.2  
Since 1 September snowfall 0.0 0.2  
Snow Depth 0.00 in    
Sea Level Pressure  
Sea Level Pressure 29.83 in    
Wind  
Wind Speed 10 mph (SSE)    
Max Wind Speed 25 mph    
Max Gust Speed 32 mph    
Visibility 10 miles    
Events Rain , Thunderstorm    
T = Trace of Precipitation, MM = Missing Value Source: NWS Daily Summary

Daily Weather History Graph

Daily Weather History Graph

Search for Another Location

Airport or City:

Trip Planner

Search our weather history database for the weather conditions in past years. The results will help you decide how hot, cold, wet, or windy it might be!

Date:

Astronomy

Oct. 02, 2013 Rise Set
Actual Time 7:31 AM CDT 7:13 PM CDT
Civil Twilight 7:04 AM CDT 7:40 PM CDT
Nautical Twilight 6:32 AM CDT 8:12 PM CDT
Astronomical Twilight 6:00 AM CDT 8:44 PM CDT
Moon 5:05 AM CDT (10/2) 5:50 PM CDT (10/2)
Length of Visible Light 12h 36m
Length of Day
11h 42m
Waning Crescent, 6% of the Moon is Illuminated
Oct 2
Waning Crescent
Oct 4
New
Oct 11
First Quarter
Oct 18
Full
Oct 26
Last Quarter

Hourly Weather History & Observations

Time (CDT) Temp. Heat Index Dew Point Humidity Pressure Visibility Wind Dir Wind Speed Gust Speed Precip Events Conditions
12:53 AM 64.0 °F - 50.0 °F 60% 29.92 in 10.0 mi ESE 9.2 mph - N/A   Clear
1:53 AM 62.1 °F - 52.0 °F 70% 29.91 in 10.0 mi SE 5.8 mph - N/A   Clear
2:53 AM 63.0 °F - 54.0 °F 72% 29.91 in 10.0 mi SSE 6.9 mph - N/A   Mostly Cloudy
3:53 AM 62.1 °F - 55.9 °F 80% 29.88 in 10.0 mi SSE 6.9 mph - N/A   Clear
4:53 AM 62.1 °F - 55.9 °F 80% 29.87 in 10.0 mi SSE 6.9 mph - N/A   Clear
5:53 AM 62.1 °F - 57.0 °F 84% 29.87 in 10.0 mi SSE 8.1 mph - N/A   Partly Cloudy
6:53 AM 61.0 °F - 57.0 °F 87% 29.88 in 10.0 mi SSE 6.9 mph - N/A   Clear
7:53 AM 62.1 °F - 57.9 °F 86% 29.89 in 9.0 mi SSE 6.9 mph - N/A   Partly Cloudy
8:53 AM 64.0 °F - 57.9 °F 80% 29.89 in 10.0 mi South 6.9 mph - N/A   Clear
9:53 AM 70.0 °F - 59.0 °F 68% 29.89 in 10.0 mi South 6.9 mph - N/A   Scattered Clouds
10:53 AM 73.9 °F - 59.0 °F 59% 29.88 in 10.0 mi South 9.2 mph - N/A   Mostly Cloudy
11:53 AM 79.0 °F - 57.9 °F 48% 29.86 in 10.0 mi South 9.2 mph 19.6 mph N/A   Partly Cloudy
12:53 PM 82.0 °F 81.7 °F 57.0 °F 42% 29.83 in 10.0 mi South 15.0 mph 23.0 mph N/A   Clear
1:53 PM 82.9 °F 82.4 °F 57.0 °F 41% 29.81 in 10.0 mi SSE 18.4 mph 26.5 mph N/A   Partly Cloudy
2:53 PM 82.0 °F 82.1 °F 59.0 °F 45% 29.79 in 10.0 mi SSE 16.1 mph 24.2 mph N/A   Scattered Clouds
3:53 PM 82.0 °F 82.7 °F 61.0 °F 49% 29.78 in 10.0 mi SSE 11.5 mph 20.7 mph N/A   Scattered Clouds
4:53 PM 81.0 °F 81.7 °F 61.0 °F 50% 29.78 in 10.0 mi SSE 13.8 mph 23.0 mph N/A   Partly Cloudy
5:53 PM 78.1 °F - 62.1 °F 58% 29.77 in 10.0 mi South 10.4 mph 19.6 mph N/A   Clear
6:53 PM 77.0 °F - 62.1 °F 60% 29.77 in 10.0 mi SSE 11.5 mph - N/A   Partly Cloudy
7:53 PM 75.0 °F - 62.1 °F 64% 29.77 in 10.0 mi SSE 8.1 mph - N/A   Clear
8:53 PM 73.9 °F - 62.1 °F 66% 29.77 in 10.0 mi SSE 9.2 mph - N/A   Overcast
9:53 PM 73.9 °F - 62.1 °F 66% 29.74 in 10.0 mi SSE 11.5 mph 20.7 mph N/A   Mostly Cloudy
10:53 PM 73.9 °F - 62.1 °F 66% 29.75 in 10.0 mi South 9.2 mph 23.0 mph N/A Thunderstorm Mostly Cloudy
11:28 PM 64.4 °F - 59.0 °F 83% 29.82 in 10.0 mi NNW 25.3 mph 32.2 mph 0.00 in Rain , Thunderstorm Light Rain
11:35 PM 64.4 °F - 57.2 °F 77% 29.83 in 10.0 mi NNE 15.0 mph 32.2 mph 0.00 in Rain , Thunderstorm Light Rain
11:38 PM 64.4 °F - 57.2 °F 77% 29.83 in 10.0 mi NNE 21.9 mph 28.8 mph 0.00 in Rain , Thunderstorm Light Rain
11:53 PM 63.0 °F - 57.9 °F 84% 29.81 in 10.0 mi NE 12.7 mph - 0.00 in Thunderstorm Thunderstorm
11:58 PM 62.6 °F - 57.2 °F 82% 29.84 in 10.0 mi ENE 17.3 mph - 0.00 in Rain , Thunderstorm Light Thunderstorms and Rain